GW5201 Weather Reports


Display with metric or nautical units.
time (UTC)temp
F
wind
direction
speed
MPH
gust
MPH
rain 1hr
in
rain 24hr
in
rain mn
in
humidity
%
barometer
mb
20260506201803 67 70 2.0 6.0 0.00 0.08 0.08 80 1008.0
20260506201119 67 110 2.0 6.0 0.00 0.08 0.08 82 1007.9
20260506200003 66 131 1.0 6.0 0.00 0.08 0.08 82 1008.0
20260506195618 66 141 1.0 4.0 0.00 0.08 0.08 82 1008.1
20260506194503 65 79 1.0 4.0 0.00 0.08 0.08 83 1008.3
20260506193603 65 103 2.0 5.0 0.00 0.08 0.08 83 1008.4
20260506192703 65 119 2.0 9.0 0.00 0.08 0.08 82 1008.4
20260506191803 65 120 2.0 8.0 0.00 0.08 0.08 84 1008.4
20260506191118 64 108 2.0 8.0 0.00 0.08 0.08 84 1008.6
20260506190003 64 75 2.0 5.0 0.00 0.08 0.08 85 1008.8
20260506185403 64 80 1.0 5.0 0.00 0.08 0.08 85 1008.7
20260506184717 64 108 1.0 6.0 0.00 0.08 0.08 85 1008.7
20260506183603 64 129 2.0 6.0 0.00 0.08 0.08 85 1008.8
20260506182703 63 106 2.0 8.0 0.00 0.08 0.08 86 1009.0
20260506181803 63 125 2.0 8.0 0.00 0.08 0.08 86 1009.1
20260506180903 63 128 1.0 7.0 0.00 0.08 0.08 86 1009.1
20260506180004 63 115 2.0 5.0 0.00 0.08 0.08 87 1009.1
20260506175403 63 134 2.0 10.0 0.00 0.08 0.08 87 1009.2
20260506174503 63 128 2.0 9.0 0.00 0.08 0.08 87 1009.3
20260506173603 63 127 2.0 5.0 0.00 0.08 0.08 86 1009.4
20260506172703 63 119 2.0 8.0 0.00 0.08 0.08 87 1009.3
20260506171803 62 123 2.0 7.0 0.01 0.08 0.08 87 1009.2
20260506170903 62 121 2.0 13.0 0.02 0.08 0.08 87 1009.5
20260506170003 62 136 3.0 11.0 0.03 0.08 0.08 87 1009.5
20260506165616 62 143 2.0 7.0 0.03 0.08 0.08 88 1009.4
20260506164503 63 145 2.0 6.0 0.05 0.08 0.08 87 1009.6
20260506163603 63 155 2.0 8.0 0.05 0.08 0.08 87 1009.5
20260506162703 63 180 1.0 6.0 0.06 0.08 0.08 88 1009.7
20260506161803 62 166 2.0 5.0 0.05 0.07 0.07 87 1009.6
20260506160903 62 130 1.0 5.0 0.05 0.06 0.06 88 1009.8
20260506160003 62 110 2.0 8.0 0.05 0.05 0.05 87 1010.3
20260506155403 63 111 1.0 8.0 0.04 0.04 0.05 86 1010.6
20260506154503 63 116 2.0 9.0 0.03 0.03 0.03 85 1010.6
20260506153603 63 133 2.0 9.0 0.03 0.03 0.03 84 1010.5
20260506152703 63 103 1.0 5.0 0.02 0.02 0.02 84 1010.6
20260506151803 64 108 2.0 10.0 0.02 0.02 0.02 81 1010.4
20260506150903 64 110 2.0 14.0 0.01 0.01 0.01 79 1010.3
20260506150003 65 0 0.0 0.0 0.00 0.00 0.00 78 1010.1
20260506145616 65 0 0.0 0.0 0.00 0.00 0.00 77 1010.3
20260506144503 66 0 0.0 0.0 0.00 0.00 0.00 75 1010.5
20260506143603 66 0 0.0 0.0 0.00 0.00 0.00 76 1010.4
20260506142918 66 0 0.0 0.0 0.00 0.00 0.00 73 1010.4
20260506142017 67 0 0.0 0.0 0.00 0.00 0.00 71 1010.5
20260506140903 68 0 0.0 0.0 0.00 0.00 0.00 69 1010.4
20260506140003 68 0 0.0 0.0 0.00 0.00 0.00 67 1010.3
20260506135403 69 0 0.0 0.0 0.00 0.00 0.00 68 1010.5
20260506134503 69 0 0.0 0.0 0.00 0.00 0.00 69 1010.3
20260506133818 68 0 0.0 0.0 0.00 0.00 0.00 70 1010.2
20260506132917 66 0 0.0 0.0 0.00 0.00 0.00 72 1010.3
20260506131803 66 126 0.0 1.0 0.00 0.00 0.00 72 1010.3
20260506130903 66 145 2.0 8.0 0.00 0.00 0.00 72 1010.4
20260506130003 66 127 3.0 16.0 0.00 0.00 0.00 71 1010.6
20260506125403 67 137 3.0 14.0 0.00 0.00 0.00 72 1010.7
20260506124503 67 145 3.0 10.0 0.00 0.00 0.00 72 1010.7
20260506123603 67 138 4.0 12.0 0.00 0.00 0.00 72 1010.4
20260506122703 66 126 2.0 8.0 0.00 0.00 0.00 74 1010.6
20260506122016 66 134 2.0 8.0 0.00 0.00 0.00 74 1010.5
20260506121116 66 137 3.0 11.0 0.00 0.00 0.00 74 1010.4
20260506120219 66 137 3.0 9.0 0.00 0.00 0.00 76 1010.4
20260506115403 65 133 3.0 10.0 0.00 0.00 0.00 77 1010.3
20260506114718 65 132 3.0 10.0 0.00 0.00 0.00 77 1010.3
20260506113603 64 137 4.0 12.0 0.00 0.00 0.00 78 1010.2
20260506112917 64 138 3.0 12.0 0.00 0.00 0.00 78 1010.3
20260506111803 64 123 3.0 10.0 0.00 0.00 0.00 79 1010.4
20260506110903 63 128 3.0 9.0 0.00 0.00 0.00 79 1010.2
20260506110003 63 127 2.0 8.0 0.00 0.00 0.00 80 1010.2
20260506105403 63 135 3.0 15.0 0.00 0.00 0.00 80 1010.2
20260506104503 63 133 2.0 7.0 0.00 0.00 0.00 80 1010.3
20260506103603 63 131 2.0 10.0 0.00 0.00 0.00 80 1010.2
20260506102703 63 141 2.0 6.0 0.00 0.00 0.00 81 1010.2
20260506101803 63 145 2.0 9.0 0.00 0.00 0.00 81 1010.2
20260506100903 63 140 2.0 6.0 0.00 0.00 0.00 81 1010.2
20260506100003 63 150 2.0 6.0 0.00 0.00 0.00 81 1010.1
20260506095403 63 140 2.0 8.0 0.00 0.00 0.00 81 1010.2
20260506094503 63 131 2.0 7.0 0.00 0.00 0.00 81 1010.3
20260506093817 63 120 1.0 6.0 0.00 0.00 0.00 81 1010.3
20260506092916 63 132 1.0 6.0 0.00 0.00 0.00 80 1010.3
20260506091803 64 129 2.0 7.0 0.00 0.00 0.00 80 1010.2
20260506090903 64 124 2.0 6.0 0.00 0.00 0.00 79 1010.2
20260506090003 64 123 2.0 7.0 0.00 0.00 0.00 79 1010.3
20260506085618 64 135 2.0 7.0 0.00 0.00 0.00 79 1010.3
20260506084503 64 132 2.0 8.0 0.00 0.00 0.00 78 1010.3
20260506083603 64 149 2.0 9.0 0.00 0.00 0.00 78 1010.2
20260506082703 65 147 2.0 7.0 0.00 0.00 0.00 78 1010.2
20260506081803 65 129 2.0 6.0 0.00 0.00 0.00 78 1010.4
20260506081118 65 137 2.0 8.0 0.00 0.00 0.00 78 1010.5
20260506072703 66 119 1.0 6.0 0.00 0.00 0.00 75 1010.5
20260506071803 66 116 2.0 7.0 0.00 0.00 0.00 75 1010.5
20260506070903 66 131 2.0 8.0 0.00 0.00 0.00 75 1010.5
20260506061803 66 132 2.0 9.0 0.00 0.00 0.00 74 1010.8
20260506060903 66 127 1.0 9.0 0.00 0.00 0.00 74 1010.7
20260506050903 66 125 1.0 5.0 0.00 0.00 0.00 73 1011.2
20260506044503 66 121 1.0 6.0 0.00 0.00 0.00 72 1011.5
20260506043603 66 135 1.0 6.0 0.00 0.00 0.00 72 1011.5
20260506042703 66 96 0.0 6.0 0.00 0.00 0.00 72 1011.4
20260506041803 66 130 1.0 4.0 0.00 0.00 0.00 71 1011.5
20260506040903 66 138 1.0 4.0 0.00 0.00 0.00 70 1011.5
20260506040003 66 132 1.0 4.0 0.00 0.00 0.00 70 1011.4
20260506035403 67 128 1.0 7.0 0.00 0.00 0.00 69 1011.4
20260506034503 67 135 1.0 6.0 0.00 0.00 0.00 68 1011.3
20260506033818 67 128 2.0 7.0 0.00 0.00 0.00 68 1011.4
20260506032703 67 149 2.0 9.0 0.00 0.00 0.00 67 1011.2
20260506032017 67 159 2.0 9.0 0.00 0.00 0.00 67 1011.2
20260506031117 68 149 2.0 6.0 0.00 0.00 0.00 66 1011.2
20260506030003 68 142 1.0 11.0 0.00 0.00 0.00 65 1011.3
20260506025403 68 138 1.0 6.0 0.00 0.00 0.00 65 1011.2
20260506024503 68 151 1.0 5.0 0.00 0.00 0.00 64 1011.3
20260506023603 69 157 2.0 6.0 0.00 0.00 0.00 62 1011.3
20260506022703 69 150 2.0 8.0 0.00 0.00 0.00 61 1011.4
20260506022017 70 164 2.0 8.0 0.00 0.00 0.00 60 1011.3
20260506021116 70 139 2.0 10.0 0.00 0.00 0.00 58 1011.2
20260506020215 71 0 0.0 0.0 0.00 0.00 0.00 57 1011.2
20260506015403 71 0 0.0 0.0 0.00 0.00 0.00 56 1011.1
20260506014503 71 0 0.0 0.0 0.00 0.00 0.00 54 1011.1
20260506013603 72 0 0.0 0.0 0.00 0.00 0.00 54 1011.0
20260506012703 72 0 0.0 0.0 0.00 0.00 0.00 52 1010.8
20260506012016 72 0 0.0 0.0 0.00 0.00 0.00 52 1010.8
20260506010903 73 0 0.0 0.0 0.00 0.00 0.00 51 1010.7
20260506010003 73 323 0.0 2.0 0.00 0.00 0.00 49 1010.7
20260506005619 73 148 1.0 9.0 0.00 0.00 0.00 49 1010.5
20260506004503 74 131 3.0 10.0 0.00 0.00 0.00 48 1010.4
20260506003603 74 123 2.0 6.0 0.00 0.00 0.00 48 1010.5
20260506002703 74 131 2.0 11.0 0.00 0.00 0.00 47 1010.4
20260506002016 74 127 2.0 7.0 0.00 0.00 0.00 46 1010.2
20260506000903 75 146 3.0 10.0 0.00 0.00 0.00 45 1010.2
20260506000219 75 154 2.0 7.0 0.00 0.00 0.00 45 1010.1
20260505235403 75 139 2.0 10.0 0.00 0.00 0.00 45 1009.9
20260505234503 76 141 3.0 10.0 0.00 0.00 0.00 44 1009.9
20260505233603 76 144 3.0 9.0 0.00 0.00 0.00 45 1009.9
20260505232703 76 139 2.0 10.0 0.00 0.00 0.00 45 1009.9
20260505231803 77 129 3.0 11.0 0.00 0.00 0.00 45 1009.8
20260505230903 77 133 3.0 9.0 0.00 0.00 0.00 44 1009.8
20260505230218 78 129 3.0 9.0 0.00 0.00 0.00 44 1009.7
20260505225403 78 127 2.0 8.0 0.00 0.00 0.00 43 1009.7
20260505224503 78 131 3.0 15.0 0.00 0.00 0.00 43 1009.6
20260505223603 78 117 3.0 12.0 0.00 0.00 0.00 43 1009.7
20260505222916 79 134 3.0 12.0 0.00 0.00 0.00 43 1009.7
20260505221803 79 130 3.0 9.0 0.00 0.00 0.00 40 1009.8
20260505220903 80 106 3.0 10.0 0.00 0.00 0.00 38 1009.8
20260505220218 80 101 3.0 14.0 0.00 0.00 0.00 37 1009.8
20260505215403 80 123 3.0 16.0 0.00 0.00 0.00 37 1009.5
20260505214503 80 116 4.0 18.0 0.00 0.00 0.00 36 1009.4
20260505213603 80 157 3.0 11.0 0.00 0.00 0.00 36 1009.5
20260505212703 80 148 3.0 14.0 0.00 0.00 0.00 36 1009.6
20260505211803 81 141 3.0 15.0 0.00 0.00 0.00 38 1009.4
20260505211118 81 135 4.0 10.0 0.00 0.00 0.00 36 1009.5
20260505210003 81 136 3.0 9.0 0.00 0.00 0.00 35 1009.4
20260505205403 81 123 3.0 13.0 0.00 0.00 0.00 35 1009.4
20260505204503 81 108 4.0 16.0 0.00 0.00 0.00 35 1009.6
20260505203603 81 145 4.0 16.0 0.00 0.00 0.00 33 1009.6
20260505202703 81 112 3.0 17.0 0.00 0.00 0.00 34 1009.6